,,,PA_Meas_PMT16A,,PR_Meas_QMR101_102,,RH_Meas_QMH101,,SR_Meas_QMS101,,TA_Meas_QMH101,,GenWind,,GenWind,
date,time,status,PA,status,PR,status,RH,status,SR,status,TA,status,DirAvg,status,SpdAvg,
2008-05-07, 00:00:05,VALID,1009.4,VALID,0,VALID,95.1847,VALID,0,VALID,23.772,VALID,38,VALID,0,
2008-05-07, 00:01:05,VALID,1009.36,VALID,0,VALID,95.2228,VALID,0,VALID,23.7701,VALID,38,VALID,0.140625,
2008-05-07, 00:02:05,VALID,1009.34,VALID,0,VALID,95.238,VALID,0,VALID,23.772,VALID,38,VALID,0.189453,
2008-05-07, 00:03:05,VALID,1009.33,VALID,0,VALID,95.2609,VALID,0,VALID,23.772,VALID,38,VALID,0.0867188,
2008-05-07, 00:04:05,VALID,1009.31,VALID,0,VALID,95.2609,VALID,0,VALID,23.772,VALID,38,VALID,0.351563,
2008-05-07, 00:05:05,VALID,1009.29,VALID,0,VALID,95.2609,VALID,0,VALID,23.772,VALID,26,VALID,0.264453,
2008-05-07, 00:06:05,VALID,1009.24,VALID,0,VALID,95.2914,VALID,0,VALID,23.772,VALID,26,VALID,0.232812,
2008-05-07, 00:07:05,VALID,1009.24,VALID,0,VALID,95.2685,VALID,0,VALID,23.7312,VALID,26,VALID,0.200781,
2008-05-07, 00:08:05,VALID,1009.21,VALID,0,VALID,95.3143,VALID,0,VALID,23.7525,VALID,26,VALID,0.215625,
2008-05-07, 00:09:05,VALID,1009.22,VALID,0,VALID,95.299,VALID,0,VALID,23.7525,VALID,26,VALID,0.172266,
2008-05-07, 00:10:05,VALID,1009.17,VALID,0,VALID,95.3295,VALID,0,VALID,23.7525,VALID,56,VALID,0.323438,
2008-05-07, 00:11:05,VALID,1009.21,VALID,0,VALID,95.3143,VALID,0,VALID,23.733,VALID,56,VALID,0.161719,
2008-05-07, 00:12:05,VALID,1009.16,VALID,0,VALID,95.2533,VALID,0,VALID,23.6727,VALID,56,VALID,0.108203,
2008-05-07, 00:13:05,VALID,1009.14,VALID,0,VALID,95.299,VALID,0,VALID,23.694,VALID,56,VALID,0.170312,
2008-05-07, 00:14:05,VALID,1009.14,VALID,0,VALID,95.2762,VALID,0,VALID,23.6922,VALID,56,VALID,0.245312,
2008-05-07, 00:15:05,VALID,1009.13,VALID,0,VALID,95.2838,VALID,0.105969,VALID,23.6745,VALID,56,VALID,0.142578,
2008-05-07, 00:16:05,VALID,1009.08,VALID,0,VALID,95.299,VALID,0.105969,VALID,23.655,VALID,56,VALID,0.111719,
2008-05-07, 00:17:05,VALID,1009.09,VALID,0,VALID,95.299,VALID,0,VALID,23.6356,VALID,56,VALID,0.123047,
2008-05-07, 00:18:05,VALID,1009.07,VALID,0,VALID,95.3067,VALID,0,VALID,23.6161,VALID,56,VALID,0.151562,
2008-05-07, 00:19:05,VALID,1009.07,VALID,0,VALID,95.3753,VALID,0,VALID,23.6161,VALID,56,VALID,0.0585938,
2008-05-07, 00:20:05,VALID,1009.03,VALID,0,VALID,95.4058,VALID,0,VALID,23.6356,VALID,30,VALID,0.301562,
2008-05-07, 00:21:05,VALID,1009.04,VALID,0,VALID,95.4363,VALID,0,VALID,23.6143,VALID,29,VALID,0.25625,
2008-05-07, 00:22:05,VALID,1009,VALID,0,VALID,95.3677,VALID,0,VALID,23.6161,VALID,29,VALID,0.144531,
2008-05-07, 00:23:05,VALID,1008.98,VALID,0,VALID,95.3677,VALID,0,VALID,23.5771,VALID,29,VALID,0.133594,
2008-05-07, 00:24:05,VALID,1008.96,VALID,0,VALID,95.36,VALID,0,VALID,23.5771,VALID,29,VALID,0,
2008-05-07, 00:25:05,VALID,1008.96,VALID,0,VALID,95.3677,VALID,0.105969,VALID,23.5558,VALID,29,VALID,0.182422,
2008-05-07, 00:26:05,VALID,1008.96,VALID,0,VALID,95.4592,VALID,0,VALID,23.5771,VALID,106,VALID,0.694922,
2008-05-07, 00:27:05,VALID,1008.94,VALID,0,VALID,95.4744,VALID,0,VALID,23.6179,VALID,98,VALID,0.732422,
2008-05-07, 00:28:05,VALID,1008.92,VALID,0,VALID,95.4973,VALID,0,VALID,23.6179,VALID,87,VALID,0.791016,
2008-05-07, 00:29:05,VALID,1008.91,VALID,0,VALID,95.5202,VALID,0,VALID,23.6179,VALID,89,VALID,0.6125,
2008-05-07, 00:30:05,VALID,1008.88,VALID,0,VALID,95.5049,VALID,0,VALID,23.5771,VALID,63,VALID,0.826563,
2008-05-07, 00:31:05,VALID,1008.86,VALID,0,VALID,95.4897,VALID,0,VALID,23.5771,VALID,64,VALID,0.7,
2008-05-07, 00:32:05,VALID,1008.84,VALID,0,VALID,95.4592,VALID,0,VALID,23.5771,VALID,34,VALID,0.350391,
2008-05-07, 00:33:05,VALID,1008.87,VALID,0,VALID,95.4592,VALID,0,VALID,23.5789,VALID,52,VALID,0.316797,
2008-05-07, 00:34:05,VALID,1008.85,VALID,0,VALID,95.4821,VALID,0,VALID,23.5789,VALID,50,VALID,0.1625,
2008-05-07, 00:35:05,VALID,1008.84,VALID,0,VALID,95.4744,VALID,0,VALID,23.5576,VALID,51,VALID,0.0871094,
2008-05-07, 00:36:05,VALID,1008.83,VALID,0,VALID,95.4516,VALID,0,VALID,23.5594,VALID,53,VALID,0.108594,
2008-05-07, 00:37:05,VALID,1008.86,VALID,0,VALID,95.4897,VALID,0,VALID,23.5789,VALID,75,VALID,0.31875,
2008-05-07, 00:38:05,VALID,1008.83,VALID,0,VALID,95.4821,VALID,0,VALID,23.5381,VALID,75,VALID,0.236328,
2008-05-07, 00:39:05,VALID,1008.76,VALID,0,VALID,95.4744,VALID,0,VALID,23.5381,VALID,75,VALID,0.180859,
2008-05-07, 00:40:05,VALID,1008.76,VALID,0,VALID,95.4668,VALID,0,VALID,23.5399,VALID,358,VALID,0.350391,
2008-05-07, 00:41:05,VALID,1008.75,VALID,0,VALID,95.4897,VALID,0,VALID,23.5399,VALID,359,VALID,0.100391,
2008-05-07, 00:42:05,VALID,1008.76,VALID,0,VALID,95.5278,VALID,0.105969,VALID,23.5576,VALID,2,VALID,0.128516,
2008-05-07, 00:43:05,VALID,1008.77,VALID,0,VALID,95.5354,VALID,0.105969,VALID,23.5576,VALID,63,VALID,0.607031,
2008-05-07, 00:44:05,VALID,1008.78,VALID,0,VALID,95.5431,VALID,0.105969,VALID,23.5363,VALID,118,VALID,0.495313,
2008-05-07, 00:45:05,VALID,1008.82,VALID,0,VALID,95.5126,VALID,0,VALID,23.5576,VALID,100,VALID,0.0625,
2008-05-07, 00:46:05,VALID,1008.82,VALID,0,VALID,95.5278,VALID,0.105969,VALID,23.5169,VALID,99,VALID,0.501562,
2008-05-07, 00:47:05,VALID,1008.85,VALID,0,VALID,95.5278,VALID,0,VALID,23.5576,VALID,78,VALID,0.264453,
2008-05-07, 00:48:05,VALID,1008.87,VALID,0,VALID,95.5431,VALID,0,VALID,23.5363,VALID,78,VALID,0,
2008-05-07, 00:49:05,VALID,1008.87,VALID,0,VALID,95.5354,VALID,0,VALID,23.5576,VALID,32,VALID,0.448438,
2008-05-07, 00:50:05,VALID,1008.85,VALID,0,VALID,95.5202,VALID,0,VALID,23.5576,VALID,46,VALID,0.342187,
2008-05-07, 00:51:05,VALID,1008.85,VALID,0,VALID,95.5202,VALID,0.105969,VALID,23.5363,VALID,58,VALID,0.0773437,
2008-05-07, 00:52:05,VALID,1008.87,VALID,0,VALID,95.5278,VALID,0,VALID,23.5576,VALID,120,VALID,0.469922,
2008-05-07, 00:53:05,VALID,1008.87,VALID,0,VALID,95.5126,VALID,0.105969,VALID,23.5558,VALID,109,VALID,0.448828,
2008-05-07, 00:54:05,VALID,1008.85,VALID,0,VALID,95.5202,VALID,0.105969,VALID,23.5558,VALID,109,VALID,0.290625,
2008-05-07, 00:55:05,VALID,1008.86,VALID,0,VALID,95.4668,VALID,0,VALID,23.5558,VALID,109,VALID,0.0863281,
2008-05-07, 00:56:05,VALID,1008.85,VALID,0,VALID,95.4668,VALID,0,VALID,23.5558,VALID,79,VALID,0.192969,
2008-05-07, 00:57:05,VALID,1008.8,VALID,0,VALID,95.4592,VALID,0.105969,VALID,23.5576,VALID,54,VALID,0.278516,
2008-05-07, 00:58:05,VALID,1008.82,VALID,0,VALID,95.4211,VALID,0,VALID,23.5169,VALID,55,VALID,0.525391,
2008-05-07, 00:59:05,VALID,1008.8,VALID,0,VALID,95.3677,VALID,0,VALID,23.5186,VALID,56,VALID,0.200391,
2008-05-07, 01:00:05,VALID,1008.8,VALID,0,VALID,95.3219,VALID,0,VALID,23.5186,VALID,56,VALID,0,
2008-05-07, 01:01:05,VALID,1008.76,VALID,0,VALID,95.36,VALID,0,VALID,23.5169,VALID,56,VALID,0,
2008-05-07, 01:02:05,VALID,1008.74,VALID,0,VALID,95.4058,VALID,0.105969,VALID,23.4992,VALID,333,VALID,0.176563,
2008-05-07, 01:03:05,VALID,1008.71,VALID,0,VALID,95.4287,VALID,0,VALID,23.5186,VALID,310,VALID,0.339453,
2008-05-07, 01:04:05,VALID,1008.69,VALID,0,VALID,95.36,VALID,0,VALID,23.4992,VALID,311,VALID,0.0511719,
2008-05-07, 01:05:05,VALID,1008.67,VALID,0,VALID,95.3219,VALID,0,VALID,23.4992,VALID,310,VALID,0,
2008-05-07, 01:06:05,VALID,1008.64,VALID,0,VALID,95.2914,VALID,0,VALID,23.4797,VALID,310,VALID,0,
2008-05-07, 01:07:05,VALID,1008.6,VALID,0,VALID,95.2762,VALID,0,VALID,23.4194,VALID,311,VALID,0,
2008-05-07, 01:08:05,VALID,1008.6,VALID,0,VALID,95.3219,VALID,0.105969,VALID,23.4602,VALID,310,VALID,0.0210938,
2008-05-07, 01:09:05,VALID,1008.56,VALID,0,VALID,95.3524,VALID,0,VALID,23.4602,VALID,310,VALID,0.291016,
2008-05-07, 01:10:05,VALID,1008.55,VALID,0,VALID,95.36,VALID,0.105969,VALID,23.4407,VALID,311,VALID,0,
2008-05-07, 01:11:05,VALID,1008.55,VALID,0,VALID,95.3829,VALID,0,VALID,23.4602,VALID,311,VALID,0,
2008-05-07, 01:12:05,VALID,1008.53,VALID,0,VALID,95.3448,VALID,0,VALID,23.4407,VALID,311,VALID,0,
2008-05-07, 01:13:05,VALID,1008.53,VALID,0,VALID,95.3219,VALID,0,VALID,23.4212,VALID,311,VALID,0,
2008-05-07, 01:14:05,VALID,1008.51,VALID,0,VALID,95.3219,VALID,0,VALID,23.4017,VALID,310,VALID,0,
2008-05-07, 01:15:05,VALID,1008.49,VALID,0,VALID,95.3753,VALID,0,VALID,23.4212,VALID,311,VALID,0,
2008-05-07, 01:16:05,VALID,1008.48,VALID,0,VALID,95.3829,VALID,0,VALID,23.4194,VALID,310,VALID,0,
2008-05-07, 01:17:05,VALID,1008.46,VALID,0,VALID,95.4058,VALID,0,VALID,23.4,VALID,311,VALID,0.00703125,
2008-05-07, 01:18:05,VALID,1008.45,VALID,0,VALID,95.4439,VALID,0.105969,VALID,23.4212,VALID,311,VALID,0.245312,
2008-05-07, 01:19:05,VALID,1008.42,VALID,0,VALID,95.4516,VALID,0,VALID,23.4194,VALID,311,VALID,0.139844,
2008-05-07, 01:20:05,VALID,1008.4,VALID,0,VALID,95.4516,VALID,0.105969,VALID,23.4389,VALID,310,VALID,0,
2008-05-07, 01:21:05,VALID,1008.39,VALID,0,VALID,95.4516,VALID,0,VALID,23.4212,VALID,311,VALID,0,
2008-05-07, 01:22:05,VALID,1008.39,VALID,0,VALID,95.4134,VALID,0.105969,VALID,23.4017,VALID,310,VALID,0,
2008-05-07, 01:23:05,VALID,1008.39,VALID,0,VALID,95.3905,VALID,0,VALID,23.4017,VALID,310,VALID,0,
2008-05-07, 01:24:05,VALID,1008.39,VALID,0,VALID,95.4363,VALID,0.105969,VALID,23.3805,VALID,311,VALID,0.0179687,
2008-05-07, 01:25:05,VALID,1008.42,VALID,0,VALID,95.4821,VALID,0.105969,VALID,23.4017,VALID,310,VALID,0.137891,
2008-05-07, 01:26:05,VALID,1008.45,VALID,0,VALID,95.5202,VALID,0.105969,VALID,23.4212,VALID,310,VALID,0.142969,
2008-05-07, 01:27:05,VALID,1008.47,VALID,0,VALID,95.4973,VALID,0.105969,VALID,23.4212,VALID,311,VALID,0,
2008-05-07, 01:28:05,VALID,1008.49,VALID,0,VALID,95.5126,VALID,0.105969,VALID,23.4407,VALID,310,VALID,0.132813,
2008-05-07, 01:29:05,VALID,1008.5,VALID,0,VALID,95.5354,VALID,0.105969,VALID,23.4602,VALID,310,VALID,0.147656,
2008-05-07, 01:30:05,VALID,1008.55,VALID,0,VALID,95.5354,VALID,0,VALID,23.4602,VALID,310,VALID,0.0316406,
2008-05-07, 01:31:05,VALID,1008.54,VALID,0,VALID,95.5202,VALID,0.105969,VALID,23.4797,VALID,310,VALID,0.3125,
2008-05-07, 01:32:05,VALID,1008.56,VALID,0,VALID,95.4287,VALID,0.105969,VALID,23.4407,VALID,311,VALID,0.3875,
2008-05-07, 01:33:05,VALID,1008.54,VALID,0,VALID,95.4363,VALID,0.105969,VALID,23.4194,VALID,311,VALID,0.519141,
2008-05-07, 01:34:05,VALID,1008.53,VALID,0,VALID,95.3829,VALID,0.105969,VALID,23.4,VALID,310,VALID,0.284766,
2008-05-07, 01:35:05,VALID,1008.51,VALID,0,VALID,95.3143,VALID,0.105969,VALID,23.4,VALID,310,VALID,0.188281,
2008-05-07, 01:36:05,VALID,1008.48,VALID,0,VALID,95.2838,VALID,0.105969,VALID,23.3805,VALID,310,VALID,0.151562,
2008-05-07, 01:37:05,VALID,1008.47,VALID,0,VALID,95.2685,VALID,0.105969,VALID,23.361,VALID,310,VALID,0.123438,
2008-05-07, 01:38:05,VALID,1008.48,VALID,0,VALID,95.2838,VALID,0.105969,VALID,23.3433,VALID,311,VALID,0.185156,
2008-05-07, 01:39:05,VALID,1008.47,VALID,0,VALID,95.3448,VALID,0.105969,VALID,23.3415,VALID,310,VALID,0.278125,
2008-05-07, 01:40:05,VALID,1008.51,VALID,0,VALID,95.3524,VALID,0.105969,VALID,23.3433,VALID,310,VALID,0.177734,
2008-05-07, 01:41:05,VALID,1008.5,VALID,0,VALID,95.4668,VALID,0.105969,VALID,23.3628,VALID,310,VALID,0.432813,
2008-05-07, 01:42:05,VALID,1008.51,VALID,0,VALID,95.5202,VALID,0.105969,VALID,23.3823,VALID,310,VALID,0.494141,
2008-05-07, 01:43:05,VALID,1008.51,VALID,0,VALID,95.5354,VALID,0.105969,VALID,23.4,VALID,307,VALID,0.653906,
2008-05-07, 01:44:05,VALID,1008.52,VALID,0,VALID,95.5202,VALID,0.105969,VALID,23.4212,VALID,308,VALID,0.656641,
2008-05-07, 01:45:05,VALID,1008.53,VALID,0,VALID,95.5049,VALID,0.105969,VALID,23.4407,VALID,308,VALID,0.439844,
2008-05-07, 01:46:05,VALID,1008.54,VALID,0,VALID,95.5354,VALID,0.105969,VALID,23.4194,VALID,309,VALID,0.885156,
2008-05-07, 01:47:05,VALID,1008.54,VALID,0,VALID,95.4516,VALID,0.105969,VALID,23.4212,VALID,329,VALID,0.575,
2008-05-07, 01:48:05,VALID,1008.54,VALID,0,VALID,95.3905,VALID,0.105969,VALID,23.4,VALID,345,VALID,0.284375,
2008-05-07, 01:49:05,VALID,1008.54,VALID,0,VALID,95.3829,VALID,0.105969,VALID,23.4017,VALID,346,VALID,0.441406,
2008-05-07, 01:50:05,VALID,1008.55,VALID,0,VALID,95.3829,VALID,0.105969,VALID,23.4017,VALID,349,VALID,0.199219,
2008-05-07, 01:51:05,VALID,1008.56,VALID,0,VALID,95.3905,VALID,0.105969,VALID,23.3823,VALID,349,VALID,0.255078,
2008-05-07, 01:52:05,VALID,1008.54,VALID,0,VALID,95.4211,VALID,0.105969,VALID,23.3415,VALID,333,VALID,0.373828,
2008-05-07, 01:53:05,VALID,1008.58,VALID,0,VALID,95.3829,VALID,0.105969,VALID,23.3415,VALID,324,VALID,0,
2008-05-07, 01:54:05,VALID,1008.57,VALID,0,VALID,95.3753,VALID,0.105969,VALID,23.361,VALID,324,VALID,0.0152344,
2008-05-07, 01:55:05,VALID,1008.57,VALID,0,VALID,95.4287,VALID,0,VALID,23.3433,VALID,325,VALID,0.185937,
2008-05-07, 01:56:05,VALID,1008.54,VALID,0,VALID,95.4897,VALID,0.105969,VALID,23.3628,VALID,325,VALID,0.360547,
2008-05-07, 01:57:05,VALID,1008.5,VALID,0,VALID,95.4897,VALID,0.105969,VALID,23.3628,VALID,325,VALID,0.315234,
2008-05-07, 01:58:05,VALID,1008.51,VALID,0,VALID,95.4973,VALID,0.105969,VALID,23.3628,VALID,324,VALID,0.291016,
2008-05-07, 01:59:05,VALID,1008.5,VALID,0,VALID,95.4668,VALID,0.105969,VALID,23.3823,VALID,324,VALID,0.278906,
2008-05-07, 02:00:05,VALID,1008.48,VALID,0,VALID,95.4439,VALID,0.105969,VALID,23.3433,VALID,324,VALID,0.230469,
2008-05-07, 02:01:05,VALID,1008.51,VALID,0,VALID,95.4821,VALID,0.105969,VALID,23.3238,VALID,324,VALID,0.246875,
2008-05-07, 02:02:05,VALID,1008.53,VALID,0,VALID,95.4744,VALID,0.105969,VALID,23.3433,VALID,324,VALID,0.1875,
2008-05-07, 02:03:05,VALID,1008.51,VALID,0,VALID,95.4744,VALID,0.105969,VALID,23.2848,VALID,324,VALID,0,
2008-05-07, 02:04:05,VALID,1008.51,VALID,0,VALID,95.4439,VALID,0,VALID,23.2831,VALID,324,VALID,0.0238281,
2008-05-07, 02:05:05,VALID,1008.53,VALID,0,VALID,95.4439,VALID,0.105969,VALID,23.2848,VALID,324,VALID,0.133984,
2008-05-07, 02:06:05,VALID,1008.5,VALID,0,VALID,95.5431,VALID,0.105969,VALID,23.3043,VALID,324,VALID,0.319141,
2008-05-07, 02:07:05,VALID,1008.47,VALID,0,VALID,95.5278,VALID,0.105969,VALID,23.3043,VALID,324,VALID,0.136328,
2008-05-07, 02:08:05,VALID,1008.46,VALID,0,VALID,95.5126,VALID,0.105969,VALID,23.3043,VALID,324,VALID,0,
2008-05-07, 02:09:05,VALID,1008.46,VALID,0,VALID,95.5126,VALID,0.105969,VALID,23.3043,VALID,324,VALID,0.0191406,
2008-05-07, 02:10:05,VALID,1008.47,VALID,0,VALID,95.5354,VALID,0.105969,VALID,23.2831,VALID,312,VALID,0.23125,
2008-05-07, 02:11:05,VALID,1008.45,VALID,0,VALID,95.5659,VALID,0.105969,VALID,23.3043,VALID,312,VALID,0,
2008-05-07, 02:12:05,VALID,1008.48,VALID,0,VALID,95.5278,VALID,0.105969,VALID,23.2441,VALID,312,VALID,0.160938,
2008-05-07, 02:13:05,VALID,1008.5,VALID,0,VALID,95.4897,VALID,0.105969,VALID,23.2246,VALID,312,VALID,0.384375,
2008-05-07, 02:14:05,VALID,1008.5,VALID,0,VALID,95.4668,VALID,0.105969,VALID,23.2264,VALID,312,VALID,0.419922,
2008-05-07, 02:15:05,VALID,1008.52,VALID,0,VALID,95.5126,VALID,0.105969,VALID,23.2459,VALID,312,VALID,0.301172,
2008-05-07, 02:16:04,VALID,1008.51,VALID,0,VALID,95.4592,VALID,0.105969,VALID,23.1857,VALID,312,VALID,0.228125,
2008-05-07, 02:17:04,VALID,1008.52,VALID,0,VALID,95.4516,VALID,0.105969,VALID,23.1874,VALID,312,VALID,0,
2008-05-07, 02:18:04,VALID,1008.48,VALID,0,VALID,95.4363,VALID,0.105969,VALID,23.1679,VALID,312,VALID,0,
2008-05-07, 02:19:04,VALID,1008.49,VALID,0,VALID,95.4744,VALID,0.105969,VALID,23.1679,VALID,312,VALID,0,
2008-05-07, 02:20:04,VALID,1008.47,VALID,0,VALID,95.4439,VALID,0.105969,VALID,23.1272,VALID,312,VALID,0,
2008-05-07, 02:21:04,VALID,1008.43,VALID,0,VALID,95.4744,VALID,0.105969,VALID,23.129,VALID,312,VALID,0,
2008-05-07, 02:22:04,VALID,1008.45,VALID,0,VALID,95.5507,VALID,0.105969,VALID,23.1272,VALID,312,VALID,0.160156,
2008-05-07, 02:23:04,VALID,1008.42,VALID,0,VALID,95.5736,VALID,0.105969,VALID,23.129,VALID,312,VALID,0.157813,
2008-05-07, 02:24:04,VALID,1008.38,VALID,0,VALID,95.6041,VALID,0.211938,VALID,23.1467,VALID,312,VALID,0,
2008-05-07, 02:25:04,VALID,1008.36,VALID,0,VALID,95.5888,VALID,0.105969,VALID,23.1467,VALID,312,VALID,0.297266,
2008-05-07, 02:26:04,VALID,1008.37,VALID,0,VALID,95.5812,VALID,0,VALID,23.1485,VALID,312,VALID,0.200391,
2008-05-07, 02:27:04,VALID,1008.35,VALID,0,VALID,95.5583,VALID,0,VALID,23.129,VALID,312,VALID,0.316797,
2008-05-07, 02:28:04,VALID,1008.3,VALID,0,VALID,95.5202,VALID,0,VALID,23.1095,VALID,312,VALID,0.339453,
2008-05-07, 02:29:04,VALID,1008.29,VALID,0,VALID,95.5202,VALID,0,VALID,23.0918,VALID,312,VALID,0.258594,
2008-05-07, 02:30:04,VALID,1008.28,VALID,0,VALID,95.5583,VALID,0,VALID,23.0705,VALID,312,VALID,0.186719,
2008-05-07, 02:31:04,VALID,1008.25,VALID,0,VALID,95.5964,VALID,0,VALID,23.0705,VALID,312,VALID,0.144531,
2008-05-07, 02:32:04,VALID,1008.28,VALID,0,VALID,95.5964,VALID,0,VALID,23.0723,VALID,312,VALID,0.114844,
2008-05-07, 02:33:04,VALID,1008.29,VALID,0,VALID,95.5964,VALID,0,VALID,23.0528,VALID,312,VALID,0.167578,
2008-05-07, 02:34:04,VALID,1008.27,VALID,0,VALID,95.5964,VALID,0,VALID,23.0528,VALID,312,VALID,0.237891,
2008-05-07, 02:35:04,VALID,1008.25,VALID,0,VALID,95.6041,VALID,0,VALID,23.0316,VALID,312,VALID,0.204688,
2008-05-07, 02:36:04,VALID,1008.25,VALID,0,VALID,95.6727,VALID,0,VALID,23.0316,VALID,312,VALID,0.217969,
2008-05-07, 02:37:04,VALID,1008.25,VALID,0,VALID,95.6651,VALID,0,VALID,23.0316,VALID,312,VALID,0.286719,
2008-05-07, 02:38:04,VALID,1008.23,VALID,0,VALID,95.6498,VALID,0,VALID,23.0333,VALID,312,VALID,0.278906,
2008-05-07, 02:39:04,VALID,1008.22,VALID,0,VALID,95.6117,VALID,0,VALID,22.9926,VALID,312,VALID,0.223438,
2008-05-07, 02:40:04,VALID,1008.22,VALID,0,VALID,95.6422,VALID,0,VALID,22.9926,VALID,312,VALID,0.160156,
2008-05-07, 02:41:04,VALID,1008.19,VALID,0,VALID,95.6422,VALID,0,VALID,22.9731,VALID,312,VALID,0.101953,
2008-05-07, 02:42:04,VALID,1008.16,VALID,0,VALID,95.688,VALID,0.105969,VALID,22.9714,VALID,312,VALID,0.116016,
2008-05-07, 02:43:04,VALID,1008.14,VALID,0,VALID,95.7337,VALID,0,VALID,22.9943,VALID,312,VALID,0.0832031,
2008-05-07, 02:44:04,VALID,1008.12,VALID,0,VALID,95.749,VALID,0,VALID,22.9943,VALID,312,VALID,0.205469,
2008-05-07, 02:45:04,VALID,1008.1,VALID,0,VALID,95.6956,VALID,0,VALID,22.9749,VALID,312,VALID,0.308203,
2008-05-07, 02:46:04,VALID,1008.09,VALID,0,VALID,95.749,VALID,0,VALID,22.9943,VALID,312,VALID,0.299609,
2008-05-07, 02:47:04,VALID,1008.09,VALID,0,VALID,95.749,VALID,0,VALID,22.9943,VALID,312,VALID,0.292188,
2008-05-07, 02:48:04,VALID,1008.11,VALID,0,VALID,95.7947,VALID,0,VALID,22.9943,VALID,312,VALID,0.277344,
2008-05-07, 02:49:04,VALID,1008.11,VALID,0,VALID,95.8023,VALID,0,VALID,23.0138,VALID,308,VALID,0.437109,
2008-05-07, 02:50:04,VALID,1008.18,VALID,0,VALID,95.7642,VALID,0,VALID,23.0138,VALID,309,VALID,0.176563,
2008-05-07, 02:51:04,VALID,1008.17,VALID,0,VALID,95.7947,VALID,0,VALID,22.9926,VALID,310,VALID,0.337891,
2008-05-07, 02:52:04,VALID,1008.2,VALID,0,VALID,95.81,VALID,0,VALID,23.0316,VALID,310,VALID,0.353125,
2008-05-07, 02:53:04,VALID,1008.19,VALID,0,VALID,95.8633,VALID,0.105969,VALID,23.0528,VALID,325,VALID,0.289063,
2008-05-07, 02:54:04,VALID,1008.2,VALID,0,VALID,95.8328,VALID,0,VALID,23.0316,VALID,325,VALID,0.196484,
2008-05-07, 02:55:04,VALID,1008.17,VALID,0,VALID,95.8405,VALID,0,VALID,23.0316,VALID,325,VALID,0,
2008-05-07, 02:56:04,VALID,1008.22,VALID,0,VALID,95.8252,VALID,0,VALID,23.0723,VALID,325,VALID,0.125,
2008-05-07, 02:57:04,VALID,1008.2,VALID,0,VALID,95.8023,VALID,0,VALID,23.0316,VALID,325,VALID,0.00585938,
2008-05-07, 02:58:04,VALID,1008.18,VALID,0,VALID,95.8252,VALID,0,VALID,23.0316,VALID,325,VALID,0.00195313,
2008-05-07, 02:59:04,VALID,1008.2,VALID,0,VALID,95.8023,VALID,0,VALID,23.0528,VALID,325,VALID,0.06875,
2008-05-07, 03:00:04,VALID,1008.19,VALID,0,VALID,95.8023,VALID,0,VALID,23.0333,VALID,325,VALID,0.225391,
2008-05-07, 03:01:04,VALID,1008.15,VALID,0,VALID,95.7261,VALID,0,VALID,22.9943,VALID,325,VALID,0,
2008-05-07, 03:02:04,VALID,1008.16,VALID,0,VALID,95.688,VALID,0,VALID,22.9342,VALID,325,VALID,0,
2008-05-07, 03:03:04,VALID,1008.16,VALID,0,VALID,95.6651,VALID,0,VALID,22.8757,VALID,325,VALID,0.255469,
2008-05-07, 03:04:04,VALID,1008.12,VALID,0,VALID,95.6956,VALID,0,VALID,22.8969,VALID,325,VALID,0.266406,
2008-05-07, 03:05:04,VALID,1008.12,VALID,0,VALID,95.6803,VALID,0,VALID,22.9359,VALID,325,VALID,0.239063,
2008-05-07, 03:06:04,VALID,1008.14,VALID,0,VALID,95.7261,VALID,0,VALID,22.8757,VALID,325,VALID,0.234766,
2008-05-07, 03:07:04,VALID,1008.13,VALID,0,VALID,95.749,VALID,0,VALID,22.9164,VALID,325,VALID,0.257031,
2008-05-07, 03:08:04,VALID,1008.1,VALID,0,VALID,95.8023,VALID,0,VALID,22.9164,VALID,325,VALID,0.245703,
2008-05-07, 03:09:04,VALID,1008.15,VALID,0,VALID,95.81,VALID,0,VALID,22.9147,VALID,325,VALID,0.143359,
2008-05-07, 03:10:04,VALID,1008.14,VALID,0,VALID,95.8252,VALID,0,VALID,22.8952,VALID,325,VALID,0.131641,
2008-05-07, 03:11:04,VALID,1008.13,VALID,0,VALID,95.8481,VALID,0,VALID,22.9359,VALID,325,VALID,0,
2008-05-07, 03:12:04,VALID,1008.11,VALID,0,VALID,95.8481,VALID,0.105969,VALID,22.9324,VALID,325,VALID,0,
2008-05-07, 03:13:04,VALID,1008.08,VALID,0,VALID,95.8405,VALID,0.211938,VALID,22.9536,VALID,325,VALID,0,
2008-05-07, 03:14:04,VALID,1008.05,VALID,0,VALID,95.7947,VALID,0.105969,VALID,22.8935,VALID,325,VALID,0.0136719,
2008-05-07, 03:15:04,VALID,1008.04,VALID,0,VALID,95.7032,VALID,0.105969,VALID,22.8155,VALID,325,VALID,0.519922,
2008-05-07, 03:16:04,VALID,1008.03,VALID,0,VALID,95.7032,VALID,0.105969,VALID,22.8368,VALID,328,VALID,0.722266,
2008-05-07, 03:17:04,VALID,1008.02,VALID,0,VALID,95.6498,VALID,0.105969,VALID,22.7571,VALID,328,VALID,0.688672,
2008-05-07, 03:18:04,VALID,1008.03,VALID,0,VALID,95.6803,VALID,0.105969,VALID,22.7376,VALID,324,VALID,0.587109,
2008-05-07, 03:19:04,VALID,1008.04,VALID,0,VALID,95.7566,VALID,0.105969,VALID,22.7766,VALID,318,VALID,0.497656,
2008-05-07, 03:20:04,VALID,1008.06,VALID,0,VALID,95.8328,VALID,0.105969,VALID,22.7978,VALID,133,VALID,0.532031,
2008-05-07, 03:21:04,VALID,1008.11,VALID,0,VALID,95.8633,VALID,0.105969,VALID,22.8155,VALID,128,VALID,0.456641,
2008-05-07, 03:22:04,VALID,1008.1,VALID,0,VALID,95.9015,VALID,0.105969,VALID,22.835,VALID,128,VALID,0.385547,
2008-05-07, 03:23:04,VALID,1008.12,VALID,0,VALID,95.8862,VALID,0.105969,VALID,22.8562,VALID,128,VALID,0.433594,
2008-05-07, 03:24:04,VALID,1008.14,VALID,0,VALID,95.9625,VALID,0.211938,VALID,22.8935,VALID,128,VALID,0.524609,
2008-05-07, 03:25:04,VALID,1008.14,VALID,0,VALID,95.9549,VALID,0.105969,VALID,22.9129,VALID,128,VALID,0.428125,
2008-05-07, 03:26:04,VALID,1008.16,VALID,0,VALID,95.9167,VALID,0.105969,VALID,22.9129,VALID,128,VALID,0.450391,
2008-05-07, 03:27:04,VALID,1008.18,VALID,0,VALID,95.9244,VALID,0,VALID,22.8757,VALID,128,VALID,0.541406,
2008-05-07, 03:28:04,VALID,1008.22,VALID,0,VALID,95.8939,VALID,0,VALID,22.8757,VALID,128,VALID,0.458984,
2008-05-07, 03:29:04,VALID,1008.21,VALID,0,VALID,95.8939,VALID,0.105969,VALID,22.8757,VALID,128,VALID,0.368359,
2008-05-07, 03:30:04,VALID,1008.23,VALID,0,VALID,95.9167,VALID,0,VALID,22.8562,VALID,128,VALID,0.300781,
2008-05-07, 03:31:04,VALID,1008.22,VALID,0,VALID,95.9167,VALID,0,VALID,22.8368,VALID,128,VALID,0.138672,
2008-05-07, 03:32:04,VALID,1008.19,VALID,0,VALID,95.9015,VALID,0,VALID,22.8562,VALID,128,VALID,0,
2008-05-07, 03:33:04,VALID,1008.18,VALID,0,VALID,95.8862,VALID,0,VALID,22.8562,VALID,128,VALID,0.163281,
2008-05-07, 03:34:04,VALID,1008.21,VALID,0,VALID,95.8939,VALID,0,VALID,22.8562,VALID,128,VALID,0.324609,
2008-05-07, 03:35:04,VALID,1008.19,VALID,0,VALID,95.9091,VALID,0,VALID,22.8562,VALID,101,VALID,0.365625,
2008-05-07, 03:36:04,VALID,1008.21,VALID,0,VALID,95.8862,VALID,0,VALID,22.8562,VALID,81,VALID,0.385938,
2008-05-07, 03:37:04,VALID,1008.24,VALID,0,VALID,95.8939,VALID,0,VALID,22.858,VALID,68,VALID,0.589844,
2008-05-07, 03:38:04,VALID,1008.28,VALID,0,VALID,95.9091,VALID,0,VALID,22.8562,VALID,50,VALID,0.427734,
2008-05-07, 03:39:04,VALID,1008.3,VALID,0,VALID,95.8862,VALID,0,VALID,22.8368,VALID,50,VALID,0.439453,
2008-05-07, 03:40:04,VALID,1008.3,VALID,0,VALID,95.8786,VALID,0,VALID,22.8368,VALID,50,VALID,0.300781,
2008-05-07, 03:41:04,VALID,1008.31,VALID,0,VALID,95.8939,VALID,0,VALID,22.7978,VALID,52,VALID,0.418359,